Simultaneous Nadir Overpasses (SNOs) Predictions

Prediction of SNOs between NOAA-19 and METOP-C Satellite Orbit:

Table of predicted SNOs for the next 14.0 days since TLE Epoch: 9/10/2022
Index Date (NOAA-19) Time (NOAA-19) Lat,Lon (NOAA-19) SZA (NOAA-19 ) Date (METOP-C) Time (METOP-C) Lat,Lon (METOP-C) SZA (METOP-C ) Distance(km) Time Diff (sec)
1 09/18/2022 18:10:20 -80.89, 121.00 99.15 09/18/2022 18:11:22 -80.90, 121.02 99.12 0.86 62
2 09/18/2022 19:01:18 80.89, -71.65 80.88 09/18/2022 19:02:03 80.90, -71.64 80.91 1.05 45
3 09/18/2022 19:52:20 -80.89, 95.41 99.13 09/18/2022 19:52:44 -80.89, 95.51 99.11 1.81 24
4 09/18/2022 20:43:18 80.89, -97.24 80.90 09/18/2022 20:43:25 80.89, -97.15 80.91 1.65 7
5 09/18/2022 21:34:19 -80.89, 70.19 99.08 09/18/2022 21:34:05 -80.90, 70.36 99.06 3.14 14
6 09/18/2022 22:25:17 80.89,-122.45 80.95 09/18/2022 22:24:46 80.90,-122.30 80.96 2.99 31
7 09/18/2022 23:16:18 -80.88, 44.97 99.02 09/18/2022 23:15:27 -80.89, 44.85 99.05 2.19 51



Historial Predications of SNOs between NOAA-19 and METOP-C
